SCP
0 0 0 0 0 1 0 0 0 0 0 0 0 0 0 0 0 0 0 0 0 0 0 0 0 0 0 0 0 0 0 0 0 0 0 0 0 0 0 0 0 0 0
0 0 0 0 0 0 0 0 0 0 0 0 0 0 0 0 0 0 0 0 0 0 0 0 0 0 0 0 0 0 0 0 0 0 0 0 0 0 0 0 0 0 0
0 0 0 0 0 0 0 0 0 0 0 0 0 0 0 0 0 0 0 0 0 0 0 0 0 0 0 0 0 0 0 0 0 0 0 0 0 0 0 0 0 0 0
0 0 0 0 0 0 0 0 0 0 0 0 0 0 0 0 0 0 0 0 0 0 0 0 0 0 0 0 0 0 0 0 0 0 0 0 0 0 0 0 0 0 0
0 0 0 0 0 0 0 0 0 0 0 0 0 0 0 0 0 0 0 0 0 0 0 0 0 0 0 0 0 0 0 0 0 0 0 0 0 0 0 0 0 0 0
0 0 0 0 0 0 0 0 0 0 0 0 0 0 0 0 0 0 0 0 0 0 0 0 0 0 0 0 0 0 0 0 0 0 0 0 0 0 0 0 0 0 0
0 0 0 0 0 0 0 0 0 0 0 0 0 0 0 0 0 0 0 0 0 0 0 0 0 0 0 0 0 0 0 0 0 0 0 0 0 0 0 0 0 0 0
0 0 0 0 0 0 0 0 0 0 0 0 0 0 0 0 0 0 0 0 0 0 0 0 0 0 0 0 0 0 0 0 0 0 0 0 0 0 0 0 0 0 0
0 0 0 0 0 0 0 0 0 0 0 0 0 0 0 0 0 0 0 0 0 0 0 0 0 0 0 0 0 0 0 0 0 0 0 0 0 0 0 0 0 0 0
0 0 0 0 0 0 0 0 0 0 0 0 0 0 0 0 0 0 0 0 0 0 0 0 0 0 0 0 0 0 0 0 0 0 0 0 0 0 0 0 0 0 0
0 0 0 0 0 0 0 0 0 0 0 0 0 0 0 0 0 0 0 0 0 0 0 0 0 0 0 0 0 0 0 0 0 0 0 0 0 0 0 0 0 0 0
0 0 0 0 0 0 0 0 0 0 0 0 0 0 0 0 0 0 0 0 0 0 0 0 0 0 0 0 0 0 0 0 0 0 0 0 0 0 0 0 0 0 0
0 0 0 0 0 0 0 0 0 0 0 0 0 0 0 0 0 0 0 0 0 0 0 0 0 0 0 0 0 0 0 0 0 0 0 0 0 0 0 0 0 0 0
0 0 0 0 0 0 0 0 0 0 0 0 0 0 0 0 0 0 0 0 0 0 0 0 0 0 0 0 0 0 0 0 0 0 0 0 0 0 0 0 0 0 0
0 0 0 0 0 0 0 0 0 0 0 0 0 0 0 0 0 0 0 0 0 0 0 0 0 0 0 0 0 0 0 0 0 0 0 0 0 0 0 0 0 0 0
0 0 0 0 0 0 0 0 0 0 0 0 0 0 0 0 0 0 0 0 0 0 0 0 0 0 0 0 0 0 0 0 0 0 0 0 0 0 0 0 0 0 0
0 0 0 0 0 0 0 0 0 0 0 0 0 0 0 0 0 0 0 0 0 0 0 0 0 0 0 0 0 0 0 0 0 0 0 0 0 0 0 0 0 0 0
0 0 0 0 0 0 0 0 0 0 0 0 0 0 0 0 0 0 0 0 0 0 0 0 0 0 0 0 0 0 0 0 0 0 0 0 0 0 0 0 0 0 0
0 0 0 0 0 0 0 0 0 0 0 0 0 0 0 0 0 0 0 0 0 0 0 0 0 0 0 0 0 0 0 0 0 0 0 0 0 0 0 0 0 0 0
0 0 0 0 0 0 0 0 0 0 0 0 0 0 0 0 0 0 0 0 0 0 0 0 0 0 0 0 0 0 0 0 0 0 0 0 0 0 0 0 0 0 0
0 0 0 0 0 0 0 0 0 0 0 0 0 0 0 0 0 0 0 0 0 0 0 0 0 0 0 0 0 0 0 0 0 0 0 0 0 0 0 0 0 0 0
0 0 0 0 0 0 0 0 0 0 0 0 0 0 0 0 0 0 0 0 0 0 0 0 0 0 0 0 0 0 0 0 0 0 0 0 0 0 0 0 0 0 0
0 0 0 0 0 0 0 0 0 0 0 0 0 0 0 0 0 0 0 0 0 0 0 0 0 0 0 0 0 0 0 0 0 0 0 0 0 0 0 0 0 0 0
0 0 0 0 0 0 0 0 0 0 0 0 0 0 0 0 0 0 0 0 0 0 0 0 0 0 0 0 0 0 0 0 0 0 0 0 0 0 0 0 0 0 0
0 0 0 0 0 0 0 0 0 0 0 0 0 0 0 0 0 0 0 0 0 0 0 0 0 0 0 0 0 0 0 0 0 0 0 0 0 0 0 0 0 0 0
0 0 0 0 0 0 0 0 0 0 0 0 0 0 0 0 0 0 0 0 0 0 0 0 0 0 0 0 0 0 0 0 0 0 0 0 0 0 0 0 0 0 0
Wind_Speed_500mb
29 18 13 19 23 38 45 53 46 45 40 41 38 40 35 32 28 27 24 24 22 16 12 6 8 12 17 16 14 19 15 25 18 12 11 13 11 15 23 28 21 28 26
34 26 18 29 33 43 49 49 45 40 36 27 27 28 30 29 30 29 24 22 18 14 7 8 14 16 17 16 14 15 16 21 22 19 18 11 16 24 29 34 32 29 40
44 29 20 33 42 40 44 40 36 31 27 28 32 32 33 33 35 30 25 17 12 9 9 11 10 15 18 15 12 17 19 21 24 24 16 10 12 11 23 32 32 32 34
38 25 18 28 37 48 46 38 34 30 29 33 34 34 31 37 30 22 21 14 11 11 10 8 10 15 17 23 24 20 22 27 30 27 24 29 36 19 18 19 26 37 38
37 22 22 26 31 34 38 37 35 33 34 35 32 33 31 28 23 24 22 17 15 13 11 11 14 16 12 11 13 15 15 19 22 28 32 26 26 26 26 30 31 23 28
34 25 30 31 33 35 36 38 41 39 39 36 34 34 25 18 22 25 20 15 16 15 14 13 12 10 13 14 14 18 20 18 18 22 26 28 27 14 20 27 30 31 28
47 42 43 40 37 37 38 40 45 46 44 36 31 32 24 24 20 14 10 12 12 11 11 12 12 15 16 15 18 20 18 19 19 19 21 23 26 32 33 30 30 29 34
56 48 48 44 39 38 41 43 47 50 45 39 34 31 30 27 19 9 9 12 10 9 12 11 14 18 17 16 19 20 19 19 18 18 20 20 21 27 30 27 26 24 30
60 51 48 44 41 40 42 42 44 42 40 38 36 36 33 31 25 15 17 16 16 19 23 27 26 27 23 23 21 22 21 23 24 24 24 23 22 25 31 36 31 22 23
61 53 59 49 41 40 44 43 40 38 37 38 39 39 35 27 28 26 29 27 30 31 26 26 27 26 25 25 27 28 24 27 30 29 27 27 25 25 27 32 42 40 28
65 63 70 54 42 40 44 46 44 47 43 39 40 37 32 32 37 37 38 42 39 39 37 33 32 29 27 31 34 35 29 27 30 35 31 30 33 27 27 28 33 37 35
63 58 61 55 50 44 45 53 50 55 46 38 38 38 37 36 36 40 42 39 36 38 38 37 31 29 33 32 34 38 38 35 34 36 33 32 34 31 29 26 28 37 33
64 63 61 60 58 59 60 56 62 48 41 46 45 42 41 45 44 40 41 38 38 39 37 37 36 36 36 34 38 42 42 38 39 41 42 37 36 36 31 25 25 29 30
74 73 72 70 70 67 67 63 55 57 59 49 41 37 40 44 40 38 31 37 38 36 33 32 32 34 36 41 44 46 44 42 44 47 46 44 42 43 33 32 35 34 33
80 83 78 77 74 74 71 65 57 52 50 50 45 35 30 35 38 31 34 37 38 38 39 39 40 42 43 45 47 47 46 50 47 49 49 43 40 40 32 34 36 33 31
77 81 84 81 79 77 75 69 61 65 62 53 42 32 29 37 36 38 42 46 44 40 40 43 45 47 48 49 48 41 39 42 48 48 45 41 34 32 34 37 40 39 36
59 71 83 86 79 70 65 72 68 57 50 40 31 29 27 32 32 35 40 44 44 40 39 41 43 43 44 44 44 41 38 39 43 45 42 33 32 30 34 37 32 34 37
57 45 40 60 48 51 73 71 55 45 31 26 29 28 30 26 34 33 33 37 40 39 38 39 41 41 40 40 40 37 32 34 35 35 30 31 29 30 31 28 27 29 32
44 38 49 58 65 75 75 63 41 26 18 23 12 12 14 18 23 34 42 44 42 39 38 36 33 28 25 26 24 21 25 27 26 28 25 25 24 24 27 31 31 33 33
28 40 51 70 70 58 43 33 34 29 18 15 17 20 36 42 50 46 42 36 33 32 31 27 25 22 16 16 16 17 22 19 19 20 22 22 22 25 26 26 28 25 26
43 49 56 58 50 45 43 27 19 18 16 26 41 47 50 44 37 32 28 29 31 29 26 22 22 16 11 14 15 15 15 19 18 17 16 14 15 17 17 15 15 15 17
46 43 43 39 36 28 23 27 27 29 34 38 37 36 35 31 26 22 24 27 29 28 22 16 15 11 12 13 15 19 15 11 11 8 11 7 9 9 10 11 11 11 12
44 35 30 33 31 27 24 25 27 33 34 35 36 32 26 24 24 22 24 26 27 23 17 14 15 15 15 15 15 10 11 12 11 8 8 6 6 5 5 4 4 4 4
29 26 27 26 25 25 27 27 30 34 35 33 30 27 25 21 19 19 19 21 20 15 14 17 16 13 12 12 11 11 13 14 13 7 4 2 2 4 4 4 4 5 4
28 24 23 18 14 17 23 26 32 30 31 30 28 26 22 19 18 18 19 14 15 16 17 18 17 16 13 9 8 6 12 9 8 7 4 1 4 5 5 5 8 6 3
28 35 26 22 15 20 24 21 25 29 23 26 27 23 18 11 17 24 22 20 20 22 18 18 16 16 13 11 8 6 8 7 4 5 5 6 7 6 4 5 12 9 5
Wind_Direction_500mb
169 180 207 206 192 181 194 199 210 209 212 212 213 211 209 213 224 222 200 212 227 237 249 233 182 183 206 211 197 209 218 229 238 253 280 285 260 244 246 252 239 280 249
179 194 209 203 185 181 187 197 206 209 211 221 209 212 214 203 210 192 205 215 227 248 250 237 231 235 238 228 214 206 218 229 248 249 249 254 258 252 228 223 254 243 258
180 188 215 204 198 199 204 207 207 213 210 207 209 202 195 210 203 198 212 206 242 244 264 266 247 242 231 217 226 266 253 246 253 251 267 269 238 246 242 238 242 243 241
172 181 205 211 204 206 212 209 207 203 204 206 203 204 214 202 201 210 199 229 232 232 230 224 236 235 241 263 276 274 268 264 258 253 262 268 274 274 281 267 252 244 242
168 177 203 198 188 193 198 196 187 193 194 188 198 196 195 209 208 204 209 226 210 207 215 230 247 261 273 288 301 306 296 281 266 257 255 251 272 279 273 276 258 250 260
170 182 190 190 187 186 189 189 180 181 184 182 184 194 195 207 209 211 221 209 212 219 237 253 254 273 302 319 318 313 308 301 288 271 265 264 262 282 292 291 285 269 257
174 183 194 190 189 188 188 186 184 178 177 177 174 183 196 223 205 208 218 212 220 238 255 258 267 296 300 307 316 320 311 305 297 286 279 276 263 254 256 272 286 278 275
175 192 197 195 195 192 186 182 178 176 177 175 178 190 199 205 221 226 240 230 238 268 281 256 275 285 285 300 298 304 302 299 294 285 278 273 274 265 261 267 277 268 268
182 193 198 200 198 194 185 179 170 167 170 173 183 192 200 209 223 226 228 237 251 240 230 250 274 277 276 280 284 288 284 287 293 291 282 279 273 265 264 263 268 275 259
182 188 196 199 204 194 179 171 171 176 180 183 195 204 206 206 212 215 222 205 226 244 247 254 264 262 262 276 287 292 286 271 280 290 284 277 272 267 272 265 264 268 270
183 191 195 200 204 198 186 176 186 194 203 206 204 209 214 219 220 223 226 232 239 241 253 254 263 265 264 270 278 286 288 279 269 274 282 272 276 274 273 272 269 271 275
186 192 192 198 198 204 194 187 196 207 210 217 209 207 218 225 229 234 239 243 239 236 242 250 252 253 256 266 269 275 278 276 272 268 266 270 268 282 271 277 278 269 270
192 197 197 197 198 203 199 200 198 199 190 201 207 215 229 231 231 234 239 239 233 235 236 244 243 246 253 257 256 263 266 264 260 262 260 260 261 267 268 270 274 282 274
197 201 202 203 206 205 204 207 213 214 218 223 230 232 232 237 241 236 239 241 233 238 229 235 248 253 256 254 254 255 261 260 263 263 265 259 266 270 266 264 274 273 269
202 205 206 209 209 207 210 214 214 216 211 215 218 230 235 238 234 222 229 231 232 237 235 240 244 247 253 255 256 257 261 266 264 267 269 261 273 262 258 262 266 263 262
204 205 208 209 211 211 210 211 208 199 200 202 203 212 223 225 216 219 227 236 240 248 250 250 253 255 257 262 265 267 261 264 266 267 266 273 271 263 267 269 263 253 242
206 209 217 213 212 206 206 202 195 188 191 190 190 201 217 239 235 240 249 254 256 255 260 264 265 268 268 269 266 260 261 264 265 269 267 266 268 273 273 272 270 266 258
216 218 215 201 199 212 204 186 184 180 175 191 201 219 228 252 264 263 264 263 265 268 270 273 274 275 275 271 268 264 260 258 260 259 265 273 271 271 267 273 280 272 264
214 228 199 198 190 187 178 180 162 173 177 186 192 261 239 243 262 264 262 262 264 269 272 276 279 281 276 278 265 257 255 251 253 268 270 268 264 264 272 280 277 273 267
196 208 189 172 171 166 166 165 149 145 158 247 245 242 258 243 240 244 249 258 269 276 278 285 291 293 282 270 280 260 266 261 259 253 259 265 274 280 283 283 280 283 282
158 164 165 162 157 153 154 165 168 179 190 225 241 247 246 239 241 244 257 271 278 281 284 287 292 293 274 270 270 267 266 259 256 246 255 273 287 293 300 295 289 283 280
146 156 158 161 165 183 197 195 204 201 217 230 226 219 224 229 237 252 266 272 274 274 275 273 281 260 251 252 251 254 256 259 275 307 322 326 318 324 314 304 290 276 277
155 160 167 173 177 192 206 192 194 205 201 200 205 211 216 228 240 251 260 263 264 260 258 252 244 240 250 243 266 224 237 247 254 272 309 317 320 325 332 294 236 194 247
165 171 172 183 191 183 194 194 195 195 203 206 208 213 219 229 245 257 261 262 258 262 265 246 242 236 234 241 267 218 229 228 230 251 250 314 323 34 57 159 182 180 129
164 178 182 182 190 200 212 196 199 212 216 215 216 216 223 236 257 274 290 276 278 264 269 255 247 238 233 233 279 213 208 214 206 178 144 57 37 48 139 153 168 174 191
150 179 188 212 212 218 219 224 221 223 229 230 225 225 230 255 292 276 275 247 249 254 254 238 234 232 229 221 254 219 183 185 147 112 85 85 58 39 96 151 177 206 181
Wind_Speed_850mb
29 18 13 19 23 38 45 53 46 45 40 41 38 40 35 32 28 27 24 24 22 16 12 6 8 12 17 16 14 19 15 25 18 12 11 13 11 15 23 28 21 28 26
34 26 18 29 33 43 49 49 45 40 36 27 27 28 30 29 30 29 24 22 18 14 7 8 14 16 17 16 14 15 16 21 22 19 18 11 16 24 29 34 32 29 40
44 29 20 33 42 40 44 40 36 31 27 28 32 32 33 33 35 30 25 17 12 9 9 11 10 15 18 15 12 17 19 21 24 24 16 10 12 11 23 32 32 32 34
38 25 18 28 37 48 46 38 34 30 29 33 34 34 31 37 30 22 21 14 11 11 10 8 10 15 17 23 24 20 22 27 30 27 24 29 36 19 18 19 26 37 38
37 22 22 26 31 34 38 37 35 33 34 35 32 33 31 28 23 24 22 17 15 13 11 11 14 16 12 11 13 15 15 19 22 28 32 26 26 26 26 30 31 23 28
34 25 30 31 33 35 36 38 41 39 39 36 34 34 25 18 22 25 20 15 16 15 14 13 12 10 13 14 14 18 20 18 18 22 26 28 27 14 20 27 30 31 28
47 42 43 40 37 37 38 40 45 46 44 36 31 32 24 24 20 14 10 12 12 11 11 12 12 15 16 15 18 20 18 19 19 19 21 23 26 32 33 30 30 29 34
56 48 48 44 39 38 41 43 47 50 45 39 34 31 30 27 19 9 9 12 10 9 12 11 14 18 17 16 19 20 19 19 18 18 20 20 21 27 30 27 26 24 30
60 51 48 44 41 40 42 42 44 42 40 38 36 36 33 31 25 15 17 16 16 19 23 27 26 27 23 23 21 22 21 23 24 24 24 23 22 25 31 36 31 22 23
61 53 59 49 41 40 44 43 40 38 37 38 39 39 35 27 28 26 29 27 30 31 26 26 27 26 25 25 27 28 24 27 30 29 27 27 25 25 27 32 42 40 28
65 63 70 54 42 40 44 46 44 47 43 39 40 37 32 32 37 37 38 42 39 39 37 33 32 29 27 31 34 35 29 27 30 35 31 30 33 27 27 28 33 37 35
63 58 61 55 50 44 45 53 50 55 46 38 38 38 37 36 36 40 42 39 36 38 38 37 31 29 33 32 34 38 38 35 34 36 33 32 34 31 29 26 28 37 33
64 63 61 60 58 59 60 56 62 48 41 46 45 42 41 45 44 40 41 38 38 39 37 37 36 36 36 34 38 42 42 38 39 41 42 37 36 36 31 25 25 29 30
74 73 72 70 70 67 67 63 55 57 59 49 41 37 40 44 40 38 31 37 38 36 33 32 32 34 36 41 44 46 44 42 44 47 46 44 42 43 33 32 35 34 33
80 83 78 77 74 74 71 65 57 52 50 50 45 35 30 35 38 31 34 37 38 38 39 39 40 42 43 45 47 47 46 50 47 49 49 43 40 40 32 34 36 33 31
77 81 84 81 79 77 75 69 61 65 62 53 42 32 29 37 36 38 42 46 44 40 40 43 45 47 48 49 48 41 39 42 48 48 45 41 34 32 34 37 40 39 36
59 71 83 86 79 70 65 72 68 57 50 40 31 29 27 32 32 35 40 44 44 40 39 41 43 43 44 44 44 41 38 39 43 45 42 33 32 30 34 37 32 34 37
57 45 40 60 48 51 73 71 55 45 31 26 29 28 30 26 34 33 33 37 40 39 38 39 41 41 40 40 40 37 32 34 35 35 30 31 29 30 31 28 27 29 32
44 38 49 58 65 75 75 63 41 26 18 23 12 12 14 18 23 34 42 44 42 39 38 36 33 28 25 26 24 21 25 27 26 28 25 25 24 24 27 31 31 33 33
28 40 51 70 70 58 43 33 34 29 18 15 17 20 36 42 50 46 42 36 33 32 31 27 25 22 16 16 16 17 22 19 19 20 22 22 22 25 26 26 28 25 26
43 49 56 58 50 45 43 27 19 18 16 26 41 47 50 44 37 32 28 29 31 29 26 22 22 16 11 14 15 15 15 19 18 17 16 14 15 17 17 15 15 15 17
46 43 43 39 36 28 23 27 27 29 34 38 37 36 35 31 26 22 24 27 29 28 22 16 15 11 12 13 15 19 15 11 11 8 11 7 9 9 10 11 11 11 12
44 35 30 33 31 27 24 25 27 33 34 35 36 32 26 24 24 22 24 26 27 23 17 14 15 15 15 15 15 10 11 12 11 8 8 6 6 5 5 4 4 4 4
29 26 27 26 25 25 27 27 30 34 35 33 30 27 25 21 19 19 19 21 20 15 14 17 16 13 12 12 11 11 13 14 13 7 4 2 2 4 4 4 4 5 4
28 24 23 18 14 17 23 26 32 30 31 30 28 26 22 19 18 18 19 14 15 16 17 18 17 16 13 9 8 6 12 9 8 7 4 1 4 5 5 5 8 6 3
28 35 26 22 15 20 24 21 25 29 23 26 27 23 18 11 17 24 22 20 20 22 18 18 16 16 13 11 8 6 8 7 4 5 5 6 7 6 4 5 12 9 5
Wind_Direction_850mb
169 180 207 206 192 181 194 199 210 209 212 212 213 211 209 213 224 222 200 212 227 237 249 233 182 183 206 211 197 209 218 229 238 253 280 285 260 244 246 252 239 280 249
179 194 209 203 185 181 187 197 206 209 211 221 209 212 214 203 210 192 205 215 227 248 250 237 231 235 238 228 214 206 218 229 248 249 249 254 258 252 228 223 254 243 258
180 188 215 204 198 199 204 207 207 213 210 207 209 202 195 210 203 198 212 206 242 244 264 266 247 242 231 217 226 266 253 246 253 251 267 269 238 246 242 238 242 243 241
172 181 205 211 204 206 212 209 207 203 204 206 203 204 214 202 201 210 199 229 232 232 230 224 236 235 241 263 276 274 268 264 258 253 262 268 274 274 281 267 252 244 242
168 177 203 198 188 193 198 196 187 193 194 188 198 196 195 209 208 204 209 226 210 207 215 230 247 261 273 288 301 306 296 281 266 257 255 251 272 279 273 276 258 250 260
170 182 190 190 187 186 189 189 180 181 184 182 184 194 195 207 209 211 221 209 212 219 237 253 254 273 302 319 318 313 308 301 288 271 265 264 262 282 292 291 285 269 257
174 183 194 190 189 188 188 186 184 178 177 177 174 183 196 223 205 208 218 212 220 238 255 258 267 296 300 307 316 320 311 305 297 286 279 276 263 254 256 272 286 278 275
175 192 197 195 195 192 186 182 178 176 177 175 178 190 199 205 221 226 240 230 238 268 281 256 275 285 285 300 298 304 302 299 294 285 278 273 274 265 261 267 277 268 268
182 193 198 200 198 194 185 179 170 167 170 173 183 192 200 209 223 226 228 237 251 240 230 250 274 277 276 280 284 288 284 287 293 291 282 279 273 265 264 263 268 275 259
182 188 196 199 204 194 179 171 171 176 180 183 195 204 206 206 212 215 222 205 226 244 247 254 264 262 262 276 287 292 286 271 280 290 284 277 272 267 272 265 264 268 270
183 191 195 200 204 198 186 176 186 194 203 206 204 209 214 219 220 223 226 232 239 241 253 254 263 265 264 270 278 286 288 279 269 274 282 272 276 274 273 272 269 271 275
186 192 192 198 198 204 194 187 196 207 210 217 209 207 218 225 229 234 239 243 239 236 242 250 252 253 256 266 269 275 278 276 272 268 266 270 268 282 271 277 278 269 270
192 197 197 197 198 203 199 200 198 199 190 201 207 215 229 231 231 234 239 239 233 235 236 244 243 246 253 257 256 263 266 264 260 262 260 260 261 267 268 270 274 282 274
197 201 202 203 206 205 204 207 213 214 218 223 230 232 232 237 241 236 239 241 233 238 229 235 248 253 256 254 254 255 261 260 263 263 265 259 266 270 266 264 274 273 269
202 205 206 209 209 207 210 214 214 216 211 215 218 230 235 238 234 222 229 231 232 237 235 240 244 247 253 255 256 257 261 266 264 267 269 261 273 262 258 262 266 263 262
204 205 208 209 211 211 210 211 208 199 200 202 203 212 223 225 216 219 227 236 240 248 250 250 253 255 257 262 265 267 261 264 266 267 266 273 271 263 267 269 263 253 242
206 209 217 213 212 206 206 202 195 188 191 190 190 201 217 239 235 240 249 254 256 255 260 264 265 268 268 269 266 260 261 264 265 269 267 266 268 273 273 272 270 266 258
216 218 215 201 199 212 204 186 184 180 175 191 201 219 228 252 264 263 264 263 265 268 270 273 274 275 275 271 268 264 260 258 260 259 265 273 271 271 267 273 280 272 264
214 228 199 198 190 187 178 180 162 173 177 186 192 261 239 243 262 264 262 262 264 269 272 276 279 281 276 278 265 257 255 251 253 268 270 268 264 264 272 280 277 273 267
196 208 189 172 171 166 166 165 149 145 158 247 245 242 258 243 240 244 249 258 269 276 278 285 291 293 282 270 280 260 266 261 259 253 259 265 274 280 283 283 280 283 282
158 164 165 162 157 153 154 165 168 179 190 225 241 247 246 239 241 244 257 271 278 281 284 287 292 293 274 270 270 267 266 259 256 246 255 273 287 293 300 295 289 283 280
146 156 158 161 165 183 197 195 204 201 217 230 226 219 224 229 237 252 266 272 274 274 275 273 281 260 251 252 251 254 256 259 275 307 322 326 318 324 314 304 290 276 277
155 160 167 173 177 192 206 192 194 205 201 200 205 211 216 228 240 251 260 263 264 260 258 252 244 240 250 243 266 224 237 247 254 272 309 317 320 325 332 294 236 194 247
165 171 172 183 191 183 194 194 195 195 203 206 208 213 219 229 245 257 261 262 258 262 265 246 242 236 234 241 267 218 229 228 230 251 250 314 323 34 57 159 182 180 129
164 178 182 182 190 200 212 196 199 212 216 215 216 216 223 236 257 274 290 276 278 264 269 255 247 238 233 233 279 213 208 214 206 178 144 57 37 48 139 153 168 174 191
150 179 188 212 212 218 219 224 221 223 229 230 225 225 230 255 292 276 275 247 249 254 254 238 234 232 229 221 254 219 183 185 147 112 85 85 58 39 96 151 177 206 181